Voltar ao catálogo

COSMOS 1275 DEB

LostPO
NORAD 39968·DEBRIS·🇷🇺 Russia

Lançado Jun 4, 1981 de Plesetsk Cosmodrome

Loading…

Próximas Passagens (próximas 24 horas)

TLE

ObsoletoSource: Space-Track

Época: Jul 23, 2026, 13:41 UTC

1 39968U 81053PE  26204.57029000  .00000567  00000-0  52596-3 0  9997
2 39968  83.1472 320.0618 0075113 304.9196  54.4921 13.79466244 66880

Acompanhe COSMOS 1275 DEB em tempo real com AllMySat

Download on the App Store